Location: �mondeville
(49.4591°N, 1.3431°W)
Time: 12:23:44
(UTC+00:00)

CENTAUR R/B - Pass Details

Date: 22 October 2019
Orbit: 781 x 1407 km, 63.4° (Epoch: 10 November)

Event Time Altitude Azimuth Distance (km) Brightness Sun altitude
Exits shadow 05:43:48 - 295° (WNW) 3,439 4.7 -9.3°
Reaches altitude 10° 05:44:15 10° 292° (WNW) 3,354 4.7 -9.2°
Maximum altitude 05:49:13 18° 255° (WSW) 2,886 4.4 -8.4°
Drops below altitude 10° 05:54:22 10° 218° (SW) 3,481 5.1 -7.6°
Sets 05:58:30 0° 200° (SSW) 4,461 5.8 -6.9°
